Home > Time Zones > World Clock > Weather > Italy > Turin > Past weeks

Flag for Italy Weather past 2 weeks in Turin, Italy

Now
37 °F

Partly sunny.


Feels Like: 34 °F
Forecast: 27 / 46 °F
Wind: 5 mph from North

Location: Torino / Bric Della Croce

Current Time: Jan 29, 2015 at 6:11:53 PM

Latest Report: Jan 29, 2015 at 4:55 PM


Visibility: N/A

Pressure: 29.33 "Hg

Humidity: 60%

Dew point: 25 °F

Location of TurinLocation

Historic Weather in Turin — Graph

°F

Turin temperature yesterday

Maximum temperature yesterday: 45 °F (at 1:55 PM)
Minimum temperature yesterday: 37 °F (at 11:55 PM)
Average temperature yesterday: 41 °F

Past Weeks' High & Low Weather Summary

 TemperatureHumidityPressure
High52 °F (Jan 23, 4:55 PM)100% (Jan 15, 7:55 AM)30.18 "Hg (Jan 15, 7:55 AM)
Low32 °F (Jan 21, 2:55 PM)17% (Jan 23, 4:55 PM)29.33 "Hg (Jan 29, 4:55 PM)
Average39 °F65%29.89 "Hg
* Reported Jan 14 4:55 PM — Jan 29 4:55 PM, Turin, Weather by CustomWeather, © 2014

Note: Actual official high and low records may vary slightly from our data, if they occured in-between our weather recording intervals... More about our weather records

Advertising

Turin weather history for previous 24 hours

 ConditionsComfort  
Time TempWeatherWind HumidityBarometerVisibility
4:55 PM
Jan 29
37 °FPartly sunny.5 mph60%29.33 "HgN/A
3:55 PM39 °FPartly sunny.No wind56%29.36 "HgN/A
2:55 PM37 °FPartly sunny.No wind52%29.36 "HgN/A
1:55 PM37 °FScattered clouds.No wind52%29.42 "HgN/A
12:55 PM39 °FScattered clouds.No wind56%29.45 "HgN/A
11:55 AM37 °FSunny.No wind48%29.50 "Hg10 mi
10:55 AM37 °FSunny.No wind48%29.50 "Hg10 mi
9:55 AM36 °FSunny.2 mph52%29.53 "Hg10 mi
8:55 AM34 °FSunny.6 mph60%29.53 "Hg10 mi
7:55 AM36 °FSunny.No wind48%29.53 "Hg10 mi
6:55 AM34 °FClear.2 mph48%29.56 "Hg10 mi
5:55 AM34 °FClear.8 mph41%29.62 "Hg10 mi
4:55 AM36 °FClear.7 mph35%29.62 "Hg10 mi
3:55 AM36 °FClear.3 mph35%29.65 "Hg10 mi
2:55 AM37 °FClear.6 mph35%29.68 "Hg10 mi
1:55 AM37 °FClear.5 mph33%29.71 "Hg10 mi
12:55 AM37 °FClear.7 mph33%29.74 "Hg10 mi
11:55 PM
Jan 28
37 °FClear.8 mph33%29.77 "Hg10 mi
10:55 PM39 °FClear.5 mph26%29.80 "Hg10 mi
9:55 PM39 °FClear.3 mph28%29.83 "Hg10 mi
8:55 PM39 °FClear.No wind28%29.86 "Hg10 mi
7:55 PM39 °FClear.5 mph33%29.86 "Hg10 mi
6:55 PM39 °FClear.7 mph30%29.86 "Hg10 mi
Weather by CustomWeather, © 2014

See weather overviewHow to use our weather pages